Location: Lichtensteig
(47.3376°N, 9.0841°E)
Time: 00:36:39
(UTC+00:00)

USA 234 - Pass Details

Date: 03 March 2021
Orbit: 1102 x 1105 km, 123.0° (Epoch: 13 April)

Event Time Altitude Azimuth Distance (km) Brightness Sun altitude
Exits shadow 17:52:36 - 63° (ENE) 3,386 5.3 -7.7°
Reaches altitude 10° 17:53:53 10° 68° (ENE) 2,965 4.9 -7.9°
Maximum altitude 17:59:30 30° 128° (SE) 1,870 4.1 -8.9°
Drops below altitude 10° 18:05:04 10° 187° (S) 2,953 5.6 -9.8°
Sets 18:07:54 0° 198° (SSW) 3,907 6.4 -10.3°
